Location: *
(50.8512°N, 5.6907°E)
Time: 12:04:42
(UTC+00:00)

STARLINK-1225 - Pass Details

Date: 09 April 2020
Orbit: 549 x 550 km, 53.0° (Epoch: 03 June)

Event Time Altitude Azimuth Distance (km) Brightness Sun altitude
Rises 19:17:55 0° 287° (WNW) 2,723 9.4 -8.9°
Reaches altitude 10° 19:20:10 10° 288° (WNW) 1,828 7.9 -9.2°
Maximum altitude 19:24:19 89° 10° (N) 556 3.6 -9.8°
Enters shadow 19:27:48 14° 109° (ESE) 1,557 5.3 -10.3°
